| time (UTC) | temp F | wind direction | speed MPH | gust MPH | rain 1hr in | rain 24hr in | rain mn in | humidity % | barometer mb |
| 20260903124531 | 76 | 162 | 0.0 | 0.0 | 0.00 | 0.00 | 0.00 | 70 | 1013.9 |
| 20260903123030 | 75 | 132 | 0.0 | 0.0 | 0.00 | 0.00 | 0.00 | 72 | 1013.8 |
| 20260903121533 | 75 | 132 | 0.0 | 0.0 | 0.00 | 0.00 | 0.00 | 72 | 1013.8 |
| 20260903120034 | 75 | 132 | 0.0 | 0.0 | 0.00 | 0.00 | 0.00 | 71 | 1013.7 |
| 20260903114530 | 76 | 132 | 0.0 | 0.0 | 0.00 | 0.00 | 0.00 | 70 | 1013.7 |
| 20260903113027 | 77 | 155 | 0.0 | 0.0 | 0.00 | 0.00 | 0.00 | 69 | 1013.7 |
| 20260903111527 | 78 | 150 | 0.0 | 0.0 | 0.00 | 0.00 | 0.00 | 67 | 1013.5 |
| 20260903110034 | 78 | 160 | 0.0 | 0.0 | 0.00 | 0.00 | 0.00 | 66 | 1013.7 |
| 20260903104533 | 79 | 143 | 0.0 | 3.0 | 0.00 | 0.00 | 0.00 | 65 | 1013.6 |
| 20260903103030 | 79 | 150 | 0.0 | 3.0 | 0.00 | 0.00 | 0.00 | 64 | 1013.5 |
| 20260903101540 | 80 | 178 | 0.0 | 4.0 | 0.00 | 0.00 | 0.00 | 63 | 1013.5 |
| 20260903100035 | 80 | 167 | 1.0 | 3.0 | 0.00 | 0.00 | 0.00 | 63 | 1013.4 |
| 20260903094532 | 80 | 179 | 0.0 | 2.0 | 0.00 | 0.00 | 0.00 | 63 | 1013.5 |
| 20260903093042 | 80 | 152 | 0.0 | 1.0 | 0.00 | 0.00 | 0.00 | 63 | 1013.5 |
| 20260903091540 | 80 | 174 | 0.0 | 0.0 | 0.00 | 0.00 | 0.00 | 63 | 1013.6 |
| 20260903090032 | 81 | 122 | 0.0 | 2.0 | 0.00 | 0.00 | 0.00 | 62 | 1013.7 |
| 20260903084534 | 81 | 99 | 0.0 | 2.0 | 0.00 | 0.00 | 0.00 | 61 | 1013.7 |
| 20260903083040 | 81 | 168 | 1.0 | 4.0 | 0.00 | 0.00 | 0.00 | 60 | 1013.8 |
| 20260903081535 | 81 | 204 | 1.0 | 4.0 | 0.00 | 0.00 | 0.00 | 59 | 1013.9 |
| 20260903080045 | 81 | 131 | 1.0 | 6.0 | 0.00 | 0.00 | 0.00 | 58 | 1014.0 |
| 20260903074530 | 82 | 120 | 1.0 | 6.0 | 0.00 | 0.00 | 0.00 | 57 | 1014.0 |
| 20260903073033 | 82 | 115 | 2.0 | 9.0 | 0.00 | 0.00 | 0.00 | 56 | 1014.1 |
| 20260903071519 | 83 | 107 | 2.0 | 5.0 | 0.00 | 0.00 | 0.00 | 55 | 1014.3 |
| 20260903070035 | 84 | 184 | 1.0 | 5.0 | 0.00 | 0.00 | 0.00 | 54 | 1014.3 |
| 20260903064535 | 84 | 118 | 2.0 | 6.0 | 0.00 | 0.00 | 0.00 | 53 | 1014.4 |
| 20260903063029 | 84 | 188 | 1.0 | 4.0 | 0.00 | 0.00 | 0.00 | 53 | 1014.4 |
| 20260903061532 | 85 | 111 | 1.0 | 7.0 | 0.00 | 0.00 | 0.00 | 51 | 1014.4 |
| 20260903060023 | 85 | 241 | 3.0 | 7.0 | 0.00 | 0.00 | 0.00 | 51 | 1014.3 |
| 20260903054525 | 85 | 113 | 1.0 | 5.0 | 0.00 | 0.00 | 0.00 | 51 | 1014.3 |
| 20260903053028 | 85 | 77 | 0.0 | 5.0 | 0.00 | 0.00 | 0.00 | 50 | 1014.4 |
| 20260903051532 | 86 | 118 | 2.0 | 6.0 | 0.00 | 0.00 | 0.00 | 49 | 1014.2 |
| 20260903050040 | 86 | 94 | 0.0 | 6.0 | 0.00 | 0.00 | 0.00 | 48 | 1014.1 |
| 20260903044526 | 87 | 88 | 0.0 | 2.0 | 0.00 | 0.00 | 0.00 | 48 | 1014.1 |
| 20260903043030 | 88 | 102 | 1.0 | 3.0 | 0.00 | 0.00 | 0.00 | 46 | 1014.1 |
| 20260903041511 | 88 | 98 | 2.0 | 7.0 | 0.00 | 0.00 | 0.00 | 45 | 1014.1 |
| 20260903040010 | 89 | 99 | 1.0 | 6.0 | 0.00 | 0.00 | 0.00 | 43 | 1014.1 |
| 20260903034516 | 89 | 121 | 2.0 | 5.0 | 0.00 | 0.00 | 0.00 | 43 | 1014.0 |
| 20260903033001 | 89 | 100 | 1.0 | 3.0 | 0.00 | 0.00 | 0.00 | 42 | 1014.0 |
| 20260903031506 | 90 | 126 | 1.0 | 5.0 | 0.00 | 0.00 | 0.00 | 41 | 1013.9 |
| 20260903030010 | 90 | 108 | 1.0 | 5.0 | 0.00 | 0.00 | 0.00 | 41 | 1013.7 |
| 20260903024534 | 90 | 100 | 1.0 | 4.0 | 0.00 | 0.00 | 0.00 | 40 | 1013.6 |
| 20260903023025 | 91 | 139 | 1.0 | 6.0 | 0.00 | 0.00 | 0.00 | 39 | 1013.5 |
| 20260903021505 | 92 | 111 | 1.0 | 5.0 | 0.00 | 0.00 | 0.00 | 37 | 1013.3 |
| 20260903020035 | 92 | 83 | 1.0 | 4.0 | 0.00 | 0.00 | 0.00 | 36 | 1013.1 |
| 20260903014535 | 93 | 117 | 1.0 | 5.0 | 0.00 | 0.00 | 0.00 | 35 | 1013.0 |
| 20260903013034 | 94 | 105 | 0.0 | 3.0 | 0.00 | 0.00 | 0.00 | 34 | 1012.8 |
| 20260903011536 | 95 | 120 | 1.0 | 3.0 | 0.00 | 0.00 | 0.00 | 34 | 1012.6 |
| 20260903010041 | 96 | 78 | 1.0 | 7.0 | 0.00 | 0.00 | 0.00 | 33 | 1012.4 |
| 20260903004532 | 96 | 94 | 2.0 | 5.0 | 0.00 | 0.00 | 0.00 | 32 | 1012.5 |
| 20260903003030 | 97 | 80 | 1.0 | 7.0 | 0.00 | 0.00 | 0.00 | 31 | 1012.4 |
| 20260903001551 | 98 | 72 | 3.0 | 7.0 | 0.00 | 0.00 | 0.00 | 30 | 1012.4 |
| 20260903000024 | 99 | 89 | 0.0 | 5.0 | 0.00 | 0.00 | 0.00 | 29 | 1012.3 |
| 20260902234528 | 99 | 76 | 2.0 | 6.0 | 0.00 | 0.00 | 0.00 | 29 | 1012.5 |
| 20260902233035 | 99 | 86 | 2.0 | 6.0 | 0.00 | 0.00 | 0.00 | 29 | 1012.4 |
| 20260902231534 | 99 | 91 | 1.0 | 8.0 | 0.00 | 0.00 | 0.00 | 28 | 1012.4 |
| 20260902230034 | 100 | 143 | 1.0 | 6.0 | 0.00 | 0.00 | 0.00 | 28 | 1012.4 |
| 20260902224531 | 102 | 97 | 0.0 | 5.0 | 0.00 | 0.00 | 0.00 | 27 | 1012.4 |
| 20260902223036 | 103 | 106 | 0.0 | 3.0 | 0.00 | 0.00 | 0.00 | 26 | 1012.5 |
| 20260902221506 | 103 | 131 | 1.0 | 3.0 | 0.00 | 0.00 | 0.00 | 25 | 1012.5 |
| 20260902220016 | 102 | 68 | 1.0 | 3.0 | 0.00 | 0.00 | 0.00 | 26 | 1012.7 |
| 20260902214520 | 102 | 125 | 4.0 | 8.0 | 0.00 | 0.00 | 0.00 | 26 | 1012.8 |
| 20260902213027 | 102 | 116 | 2.0 | 4.0 | 0.00 | 0.00 | 0.00 | 26 | 1013.0 |
| 20260902211534 | 102 | 225 | 2.0 | 5.0 | 0.00 | 0.00 | 0.00 | 26 | 1013.2 |
| 20260902210011 | 102 | 32 | 0.0 | 3.0 | 0.00 | 0.00 | 0.00 | 26 | 1013.3 |
| 20260902204533 | 103 | 112 | 1.0 | 4.0 | 0.00 | 0.00 | 0.00 | 25 | 1013.7 |
| 20260902203020 | 103 | 207 | 2.0 | 5.0 | 0.00 | 0.00 | 0.00 | 25 | 1013.9 |
| 20260902201527 | 103 | 162 | 3.0 | 4.0 | 0.00 | 0.00 | 0.00 | 26 | 1014.1 |
| 20260902200031 | 103 | 107 | 1.0 | 5.0 | 0.00 | 0.00 | 0.00 | 26 | 1014.4 |
| 20260902194536 | 103 | 70 | 2.0 | 4.0 | 0.00 | 0.00 | 0.00 | 27 | 1014.6 |
| 20260902193015 | 101 | 11 | 0.0 | 6.0 | 0.00 | 0.00 | 0.00 | 27 | 1014.8 |
| 20260902191539 | 102 | 162 | 2.0 | 7.0 | 0.00 | 0.00 | 0.00 | 28 | 1015.1 |
| 20260902190048 | 102 | 172 | 0.0 | 3.0 | 0.00 | 0.00 | 0.00 | 27 | 1015.5 |
| 20260902184530 | 101 | 198 | 0.0 | 3.0 | 0.00 | 0.00 | 0.00 | 29 | 1015.7 |
| 20260902183039 | 99 | 77 | 1.0 | 4.0 | 0.00 | 0.00 | 0.00 | 30 | 1015.9 |
| 20260902181516 | 99 | 153 | 1.0 | 3.0 | 0.00 | 0.00 | 0.00 | 30 | 1016.2 |
| 20260902180033 | 101 | 248 | 1.0 | 6.0 | 0.00 | 0.00 | 0.00 | 29 | 1016.4 |
| 20260902174533 | 98 | 159 | 2.0 | 7.0 | 0.00 | 0.00 | 0.00 | 32 | 1016.5 |
| 20260902173037 | 100 | 99 | 3.0 | 5.0 | 0.00 | 0.00 | 0.00 | 32 | 1016.6 |
| 20260902171547 | 98 | 203 | 1.0 | 5.0 | 0.00 | 0.00 | 0.00 | 34 | 1016.8 |
| 20260902170014 | 98 | 152 | 1.0 | 5.0 | 0.00 | 0.00 | 0.00 | 35 | 1017.1 |
| 20260902164527 | 97 | 214 | 2.0 | 4.0 | 0.00 | 0.00 | 0.00 | 34 | 1017.2 |
| 20260902163027 | 97 | 188 | 2.0 | 5.0 | 0.00 | 0.00 | 0.00 | 35 | 1017.3 |
| 20260902161544 | 96 | 112 | 1.0 | 3.0 | 0.00 | 0.00 | 0.00 | 38 | 1017.3 |
| 20260902160039 | 94 | 240 | 1.0 | 6.0 | 0.00 | 0.00 | 0.00 | 40 | 1017.2 |
| 20260902154535 | 94 | 139 | 2.0 | 6.0 | 0.00 | 0.00 | 0.00 | 40 | 1017.3 |
| 20260902153032 | 93 | 170 | 1.0 | 4.0 | 0.00 | 0.00 | 0.00 | 42 | 1017.3 |
| 20260902151529 | 91 | 163 | 1.0 | 4.0 | 0.00 | 0.00 | 0.00 | 44 | 1017.2 |
| 20260902150033 | 89 | 109 | 1.0 | 6.0 | 0.00 | 0.00 | 0.00 | 48 | 1017.2 |
| 20260902144535 | 88 | 245 | 2.0 | 6.0 | 0.00 | 0.00 | 0.00 | 51 | 1017.3 |
| 20260902143035 | 87 | 241 | 1.0 | 4.0 | 0.00 | 0.00 | 0.00 | 52 | 1017.3 |
| 20260902141534 | 86 | 217 | 2.0 | 3.0 | 0.00 | 0.00 | 0.00 | 53 | 1017.3 |
| 20260902140031 | 84 | 179 | 0.0 | 2.0 | 0.00 | 0.00 | 0.00 | 56 | 1017.4 |
| 20260902134539 | 83 | 146 | 0.0 | 4.0 | 0.00 | 0.00 | 0.00 | 59 | 1017.4 |
| 20260902133026 | 81 | 146 | 0.0 | 3.0 | 0.00 | 0.00 | 0.00 | 62 | 1017.2 |
| 20260902131523 | 79 | 174 | 0.0 | 1.0 | 0.00 | 0.00 | 0.00 | 65 | 1017.2 |
| 20260902130029 | 78 | 190 | 0.0 | 0.0 | 0.00 | 0.00 | 0.00 | 66 | 1017.2 |